GEFSNGP_con_prob3kmehi_318.txt.gz
EHI
0 0 0 0 0 0 0 0 0 1 3 3 2 2 2 2 3 4 4 3 3 3 2 2 4 6 6 6 7 9 12 12 12 11 8 7 8 9 8 7 6 8 9 9
0 0 0 0 0 0 0 0 1 2 2 2 2 1 1 1 3 3 3 3 3 3 3 2 3 5 6 7 10 13 15 15 15 14 12 10 9 10 9 8 8 9 9 9
0 0 0 0 0 0 0 0 1 2 2 2 2 1 0 1 2 3 3 3 3 3 3 3 2 3 6 9 13 15 16 16 17 18 17 15 13 11 9 8 9 9 9 9
0 0 0 0 0 0 0 0 1 1 3 3 3 1 0 1 2 3 4 3 2 2 3 3 1 2 5 9 14 16 16 16 17 18 18 18 17 14 11 10 10 9 9 9
0 0 0 0 0 0 0 0 0 2 4 4 2 1 0 1 3 4 4 3 2 1 2 2 2 3 5 9 12 14 15 15 15 16 17 18 18 16 14 12 11 10 8 8
0 0 0 0 0 0 0 0 1 3 5 4 2 1 1 2 5 7 6 4 3 3 4 4 4 7 8 8 10 13 14 14 15 16 16 16 16 15 14 12 10 8 6 5
0 0 0 0 0 0 0 0 1 3 4 5 4 3 4 6 10 12 12 10 8 8 8 7 8 10 9 7 8 12 13 13 16 17 16 15 14 13 12 10 7 5 4 4
0 0 0 0 0 0 0 0 1 2 3 5 6 8 9 11 13 15 16 15 14 12 10 9 10 11 9 8 8 10 11 13 16 16 13 11 12 11 9 7 6 5 4 4
0 0 0 0 0 0 0 0 0 1 2 4 7 10 12 14 16 16 16 16 16 14 11 10 11 12 11 9 8 8 8 10 12 12 9 8 9 9 8 7 7 7 7 7
0 0 0 0 0 0 0 0 0 0 0 2 4 8 11 15 17 17 15 15 16 15 13 11 11 12 11 10 8 8 7 8 9 9 8 8 8 9 9 9 10 10 11 12
0 0 0 0 0 0 0 0 0 0 0 1 3 5 8 12 15 15 14 14 15 15 14 13 12 11 10 9 9 9 9 8 8 9 9 8 9 9 9 10 10 10 12 13
0 0 0 0 0 0 0 0 0 0 0 1 2 4 6 8 11 12 11 10 11 12 12 12 12 11 10 8 9 10 10 10 9 9 9 9 9 8 8 8 7 6 8 9
0 0 0 0 0 0 0 0 0 0 0 0 1 3 3 4 6 7 7 6 6 7 8 8 9 9 8 8 8 8 9 10 10 9 9 9 9 9 7 7 6 4 4 4
0 0 0 0 0 0 0 0 0 0 0 0 0 1 1 2 2 4 4 4 3 4 5 6 7 6 5 5 6 6 7 8 9 9 8 8 8 8 8 7 7 5 3 2
0 0 1 1 1 1 0 0 0 0 0 0 0 0 1 2 2 2 3 3 3 3 4 6 6 5 3 2 3 5 6 8 9 8 7 6 6 6 7 7 7 5 4 3
1 1 2 2 2 2 1 1 1 1 1 1 1 1 2 3 3 2 2 3 3 3 4 5 5 4 3 2 3 5 6 7 8 7 6 5 4 4 5 6 5 4 3 3
2 2 2 3 3 3 3 2 2 2 2 2 2 3 4 5 4 2 3 3 3 3 3 4 4 4 4 4 6 7 7 7 6 6 5 3 3 3 4 4 4 3 3 3
1 1 1 1 2 3 3 3 3 3 3 3 3 3 4 5 4 3 3 3 3 3 4 4 4 4 6 6 7 9 9 9 7 4 2 1 1 1 2 3 3 3 3 3
0 0 0 0 1 1 2 2 2 2 3 3 3 3 3 3 2 2 3 3 3 3 4 5 4 5 6 6 7 8 9 9 7 3 0 0 0 0 1 3 3 3 3 3
0 0 0 0 0 0 1 1 1 1 1 2 2 2 2 1 0 1 2 3 3 2 3 3 4 4 5 5 5 6 7 7 6 3 1 0 0 0 1 2 3 3 3 3
0 0 0 0 0 0 0 0 0 0 0 1 1 1 1 0 0 0 1 2 1 1 1 1 2 3 4 3 3 5 6 5 4 4 2 1 0 0 1 2 3 3 3 3
0 0 0 0 0 0 0 0 0 0 0 0 0 0 0 0 0 0 0 0 0 0 0 0 1 2 2 2 2 3 4 3 4 4 2 1 0 0 0 1 2 3 3 3
0 1 1 1 0 0 0 0 0 0 0 0 0 0 0 0 0 0 0 0 0 0 0 0 0 1 1 1 1 1 1 1 2 2 1 0 0 0 0 0 1 2 3 3
1 1 2 1 0 0 0 0 0 0 0 0 0 0 0 0 0 0 0 0 0 0 0 0 0 0 0 0 0 0 0 0 1 1 0 0 0 0 0 0 0 1 1 2
1 1 1 1 0 0 0 0 0 0 0 0 0 0 0 0 0 0 0 0 0 0 0 0 0 0 0 0 0 0 0 0 0 0 0 0 0 0 0 0 0 0 0 1
1 0 0 0 0 0 0 0 0 0 0 0 0 0 0 0 0 0 0 0 0 0 0 0 0 0 0 0 0 0 0 0 0 0 0 0 0 0 0 0 0 0 0 0
0 0 0 0 0 0 0 0 0 0 0 0 0 0 0 0 0 0 0 0 0 0 0 0 0 0 0 0 0 0 0 0 0 0 0 0 0 0 0 0 0 0 0 0

GEFSNGP_con_prob3kmehi_324.txt.gz
EHI
0 0 0 0 0 0 0 0 0 0 1 2 3 4 6 8 12 15 18 22 24 28 31 29 26 26 26 26 24 18 12 12 15 18 20 24 27 29 29 27 23 22 22 21
0 0 0 0 0 0 0 0 0 0 1 3 4 5 8 10 13 16 17 17 18 22 25 26 26 28 30 31 29 25 19 16 16 19 21 24 27 29 29 26 24 22 21 20
0 0 0 0 0 0 0 0 0 1 2 3 5 6 8 10 14 16 16 15 15 15 18 21 22 25 28 31 31 29 27 23 21 22 23 25 27 28 28 25 23 22 20 20
0 0 0 0 0 1 1 1 1 2 3 4 6 7 7 9 14 18 18 17 16 14 14 16 17 19 21 23 25 29 30 28 25 25 26 26 28 29 27 25 23 23 22 21
0 0 0 0 0 1 2 1 1 3 4 5 6 7 8 12 17 19 20 21 20 17 14 13 14 17 18 19 21 27 31 31 28 28 28 29 30 31 29 26 24 24 23 22
0 0 0 0 0 1 1 1 1 3 5 5 6 9 13 18 21 22 24 26 25 23 19 16 17 20 21 22 22 26 30 31 29 28 28 30 32 33 31 27 25 25 24 22
0 0 0 0 0 0 0 1 2 4 5 6 7 12 19 23 25 25 26 28 29 27 24 21 22 24 24 25 25 26 28 28 27 25 25 28 33 35 33 28 25 23 21 20
0 0 0 0 0 0 1 2 3 4 6 7 8 13 19 22 25 25 24 26 29 29 26 25 26 27 26 26 26 25 26 26 26 24 23 26 31 33 32 27 23 20 18 16
0 1 1 1 0 0 1 1 2 3 5 6 7 11 16 18 20 22 22 24 28 29 28 27 27 27 25 24 24 25 26 26 27 25 24 25 27 28 26 23 19 17 16 14
0 1 1 1 1 0 0 0 1 2 4 4 4 7 11 13 15 17 21 25 28 30 31 29 29 26 22 20 22 25 27 27 27 26 24 24 24 22 20 18 16 15 15 14
0 0 1 1 1 0 0 0 1 2 2 2 2 3 6 8 10 13 18 23 28 31 31 30 30 27 21 20 23 26 28 28 27 26 23 23 22 19 16 14 13 13 13 13
0 0 0 1 1 0 0 0 0 1 1 1 0 2 5 6 7 10 13 17 21 25 25 26 28 27 24 23 24 26 28 28 27 25 25 25 24 22 16 11 8 7 8 10
0 0 0 0 0 0 0 0 1 1 1 1 1 3 5 6 5 7 10 12 14 16 17 19 23 25 25 26 27 27 27 27 27 27 26 27 28 27 22 14 7 4 3 4
1 0 0 0 0 0 0 0 1 2 3 4 4 4 6 6 5 6 8 10 10 10 10 12 17 21 23 26 28 27 26 26 27 27 26 26 29 29 26 21 15 8 3 1
2 1 1 1 1 1 0 0 1 3 5 5 5 4 5 6 7 6 6 7 8 8 7 7 11 14 17 21 23 23 23 22 22 23 23 23 25 26 25 23 20 13 7 3
3 3 2 3 4 4 2 1 1 3 4 4 4 4 5 6 7 6 5 6 7 7 6 7 8 10 11 13 16 17 17 15 15 17 18 19 20 21 22 21 17 13 8 5
3 3 3 3 4 5 3 2 2 3 3 3 4 4 5 7 7 7 6 6 7 7 7 8 9 10 10 10 10 12 12 11 10 11 14 14 16 18 19 18 15 12 9 7
2 2 2 2 3 3 3 2 2 2 3 3 5 6 7 9 10 9 8 6 6 6 7 7 9 12 12 10 10 10 10 9 9 10 10 11 12 14 16 15 13 12 10 6
1 1 1 1 2 2 2 1 1 2 2 2 4 7 9 10 12 12 9 6 5 5 6 7 9 10 11 10 10 10 9 8 10 11 11 10 10 11 12 12 12 12 9 5
0 0 0 0 1 1 2 2 2 3 2 2 3 5 8 10 11 11 10 8 6 5 5 6 8 9 10 9 9 9 9 9 10 12 12 11 9 9 9 9 10 11 8 4
0 0 0 0 0 1 1 1 2 2 2 2 2 3 6 8 10 10 9 9 7 5 4 5 7 8 7 7 8 8 9 9 9 11 11 10 9 8 7 7 8 9 7 6
0 0 0 0 0 1 1 1 1 2 2 2 2 2 4 7 8 8 7 6 5 3 2 3 4 4 4 5 7 8 8 8 8 8 9 10 9 8 7 8 8 8 8 7
0 0 1 1 1 2 2 2 2 2 2 2 2 2 3 4 5 5 3 2 1 0 1 1 1 1 2 4 7 9 9 8 7 7 9 11 11 10 9 10 10 8 7 5
1 1 2 2 2 2 2 2 2 2 2 2 2 2 1 1 2 2 1 0 0 0 0 0 0 0 1 4 7 9 10 10 9 8 10 11 11 11 10 10 9 7 4 2
3 3 4 3 2 1 1 1 1 1 1 0 1 1 0 0 0 1 1 0 0 0 0 0 0 0 1 3 5 8 10 10 9 8 8 9 9 9 8 6 5 3 1 0
3 4 4 3 1 0 0 0 0 0 0 0 0 0 0 0 0 1 2 1 1 0 0 0 0 0 0 1 2 5 7 7 7 6 6 7 7 5 3 2 1 0 0 0
2 2 3 2 0 0 0 0 0 0 0 0 0 0 0 0 1 2 3 2 2 1 0 0 0 0 0 0 1 4 5 6 6 6 7 7 5 2 1 0 0 0 0 0

GEFSNGP_con_prob3kmehi_330.txt.gz
EHI
0 0 1 1 1 0 0 0 0 0 1 3 7 9 10 12 13 17 24 33 41 46 50 53 56 59 56 49 45 45 45 45 44 45 45 45 44 43 42 40 38 38 37 35
0 0 1 2 1 0 0 0 0 1 2 5 9 13 15 16 19 22 28 36 43 47 48 49 51 52 51 47 45 45 45 45 45 45 45 44 44 44 43 41 39 38 37 37
0 0 1 1 1 0 0 1 1 2 3 6 9 14 18 22 26 28 32 38 42 44 43 42 42 45 45 43 43 44 45 44 44 44 44 43 43 44 45 44 41 39 38 38
0 0 0 0 0 0 1 2 3 3 3 5 9 14 18 24 28 30 34 38 39 37 35 34 35 39 41 41 42 42 42 41 41 42 43 43 44 47 48 46 42 40 39 39
0 0 0 0 0 0 1 3 4 3 3 5 9 13 16 21 27 31 35 38 35 31 29 30 31 35 39 41 40 38 38 37 37 40 42 43 45 47 47 44 42 40 39 39
0 0 0 0 0 0 2 5 5 4 5 8 12 13 12 16 23 28 33 35 32 28 29 31 32 34 39 41 40 37 35 35 35 37 40 41 42 42 41 40 39 38 36 35
0 0 0 0 0 2 4 7 7 6 8 12 15 14 11 14 20 23 26 29 29 28 30 33 34 36 39 42 42 40 37 35 35 36 36 36 37 37 36 36 35 34 33 33
2 2 2 2 2 4 7 8 7 7 8 12 15 14 13 15 18 19 20 24 29 31 32 35 37 38 40 41 42 42 41 38 36 33 30 31 35 36 34 33 32 31 32 33
5 5 4 4 4 6 7 7 8 8 9 10 12 13 14 17 18 17 18 23 29 32 35 38 39 40 41 41 41 41 40 37 35 31 28 29 33 34 33 31 29 27 27 29
5 4 4 4 6 6 7 8 9 9 10 11 12 13 15 16 15 14 17 23 28 30 32 34 36 37 39 39 39 38 36 35 34 32 30 29 30 31 31 30 27 24 23 23
5 4 4 5 6 6 7 9 9 9 9 10 12 12 13 11 10 11 15 21 25 26 25 26 27 29 32 36 37 36 34 33 33 32 30 29 28 27 26 24 22 20 19 18
7 7 7 8 7 5 6 7 7 7 8 10 11 11 9 6 6 8 12 16 19 19 20 21 22 23 26 30 33 34 35 34 32 29 27 28 28 25 20 14 11 10 10 10
8 9 9 8 6 4 4 4 4 5 6 8 9 8 6 5 5 7 10 11 12 12 14 16 18 20 21 24 27 29 32 32 30 28 25 25 26 25 20 13 8 5 3 3
7 8 8 5 3 2 3 4 3 3 4 6 7 8 8 8 8 7 7 8 9 9 9 10 14 16 17 18 21 24 24 25 28 28 25 24 25 26 25 22 18 12 5 2
5 5 4 4 3 3 3 4 4 4 4 5 6 8 10 9 8 7 7 10 11 9 8 9 12 14 15 15 17 19 18 17 21 24 24 23 24 25 25 26 24 19 11 6
2 2 1 2 3 3 3 4 5 5 6 6 8 10 10 9 8 8 9 12 12 10 10 12 14 15 14 13 14 14 12 10 12 16 18 19 20 21 22 22 23 21 16 12
1 0 0 1 2 3 2 3 3 5 6 7 9 10 9 9 9 10 11 13 13 11 10 13 14 13 12 12 11 9 6 5 6 9 13 14 15 16 18 18 19 19 16 13
0 1 1 1 2 2 1 1 1 3 6 7 8 9 9 10 12 12 12 12 12 11 9 9 9 7 6 7 6 5 4 4 4 6 10 11 12 13 14 14 13 13 11 10
1 2 2 2 3 3 1 0 0 2 5 6 7 8 9 10 12 12 11 10 10 9 8 6 5 4 4 3 3 4 4 3 4 6 8 9 10 11 11 10 9 8 7 7
2 2 2 3 4 4 2 1 0 1 4 6 8 9 9 10 10 10 8 6 5 5 5 4 3 4 4 3 2 3 3 3 4 5 8 9 9 9 9 9 8 7 6 6
1 1 1 3 4 4 3 1 1 1 4 7 8 7 7 8 8 7 5 3 1 1 1 1 1 2 3 2 1 2 3 3 4 6 8 9 8 8 8 8 7 7 7 6
0 0 1 3 4 4 3 2 2 4 5 7 7 6 4 4 4 3 2 1 0 0 0 0 0 0 1 0 0 1 2 3 5 7 8 7 6 6 8 7 6 6 8 8
0 1 2 4 6 6 5 3 4 5 5 5 5 4 2 1 1 1 1 1 0 0 0 0 0 0 0 0 1 2 3 2 3 5 6 5 4 5 6 7 6 5 7 8
1 2 4 5 6 7 6 4 4 4 3 3 2 1 1 1 2 2 1 1 0 0 0 0 0 0 0 0 1 3 4 2 2 3 4 4 3 3 5 6 5 5 6 6
2 4 6 6 5 5 5 4 3 2 1 1 0 0 0 1 1 1 1 0 0 0 0 0 0 0 0 0 1 2 3 3 3 4 4 5 4 3 3 3 3 4 5 5
2 4 5 4 3 2 2 1 1 1 0 0 0 0 0 0 1 0 0 0 0 0 0 0 0 0 0 0 0 1 1 3 5 6 6 6 5 3 1 1 1 2 3 4
1 2 2 2 1 1 0 0 0 0 0 0 0 0 0 1 1 1 0 0 0 0 0 0 0 0 0 0 0 0 0 2 5 7 7 6 5 2 1 1 1 1 2 3

GEFSNGP_con_prob3kmehi_336.txt.gz
EHI
0 1 2 3 3 3 1 0 1 2 5 6 8 9 9 11 15 19 23 25 24 19 17 20 22 20 20 24 27 26 25 23 21 19 19 21 21 19 19 19 20 18 17 16
0 0 2 3 3 3 2 1 1 4 6 6 7 7 8 10 13 16 19 23 23 19 17 19 23 23 22 23 25 27 27 25 22 20 20 21 21 19 19 20 21 21 20 19
0 0 1 2 2 2 2 2 2 5 7 8 7 6 6 8 12 15 18 21 21 19 17 19 23 25 25 23 23 26 27 26 25 24 23 22 21 20 19 20 21 20 21 21
0 0 1 1 1 1 2 2 3 4 7 9 9 7 7 8 12 17 19 20 20 19 20 21 23 25 27 26 24 22 23 23 25 26 24 22 20 20 19 19 19 18 19 20
0 0 0 0 1 2 3 3 4 6 8 9 10 10 8 8 10 12 15 16 17 19 21 22 24 25 27 28 27 22 20 20 22 24 23 20 19 19 19 19 17 17 18 18
0 0 0 0 1 4 5 5 6 7 8 9 10 10 8 7 7 7 8 9 12 16 19 21 23 25 25 26 27 24 22 21 21 21 21 20 18 17 17 18 17 17 17 16
0 0 0 1 3 5 6 6 6 6 7 8 8 7 7 8 7 6 5 7 10 14 16 17 19 20 21 21 21 21 21 22 22 21 21 21 19 17 17 17 18 18 16 14
0 1 1 2 4 5 6 7 7 5 5 6 5 5 7 9 8 6 5 7 11 12 13 14 15 16 17 16 15 16 17 20 22 23 22 22 21 19 18 17 18 18 17 15
1 2 2 4 5 7 7 7 5 4 4 5 5 5 6 7 7 6 6 8 11 12 12 12 12 13 13 12 12 13 15 18 20 22 23 22 21 21 19 18 17 18 18 17
2 2 2 4 7 8 8 7 5 5 5 6 7 6 5 5 5 6 7 8 10 11 10 8 8 10 10 9 10 11 13 16 17 19 21 21 19 19 19 19 18 19 18 17
1 1 1 4 6 7 7 7 8 8 8 7 7 6 4 4 4 6 7 8 7 7 6 5 5 6 6 7 8 9 11 13 13 15 17 18 16 16 16 15 16 16 16 14
0 0 1 3 5 5 5 7 8 9 10 8 6 4 3 2 2 4 5 5 4 4 4 3 3 4 4 5 6 8 9 11 11 12 14 15 14 12 12 11 9 8 8 8
0 0 1 3 4 4 5 6 6 7 7 6 6 4 2 1 0 2 3 3 3 3 3 3 3 3 4 5 6 7 8 10 11 12 12 13 13 12 11 9 7 4 2 2
0 0 1 2 3 4 5 6 6 5 4 4 5 4 3 1 1 2 3 3 3 3 2 2 2 2 3 4 5 6 7 9 10 10 10 10 11 11 10 10 10 7 3 1
0 0 0 1 1 2 3 5 6 5 4 4 4 3 2 2 2 2 2 2 2 1 1 1 1 1 1 2 3 4 5 6 6 6 6 7 7 7 7 9 10 10 6 3
0 0 0 0 0 1 1 2 4 5 5 5 2 1 1 1 2 1 0 1 1 0 0 0 0 0 0 1 3 3 4 4 3 3 3 3 4 4 4 5 7 9 8 6
0 0 0 0 0 0 0 0 1 2 3 4 2 0 0 0 0 0 0 0 0 0 0 0 0 0 1 2 3 3 3 3 2 2 1 1 2 3 3 3 4 6 7 7
0 0 0 0 0 0 0 0 0 0 1 3 2 1 0 0 0 0 0 0 0 0 0 0 0 0 1 1 2 2 2 2 1 0 0 0 1 3 3 3 3 4 5 6
0 0 0 0 0 0 0 0 0 0 1 3 3 2 1 0 0 0 0 0 0 0 0 0 0 0 0 0 1 1 1 1 0 0 0 0 1 2 3 3 3 3 3 4
0 0 0 0 0 0 0 0 0 1 2 3 3 2 1 0 0 0 0 0 0 0 0 0 0 0 0 0 0 0 0 0 0 0 0 0 0 1 1 3 3 2 1 1
0 0 0 0 0 0 1 1 1 1 2 3 3 2 1 0 0 0 0 0 0 0 0 0 0 0 0 0 0 0 0 0 0 0 0 0 0 0 1 2 2 1 0 0
1 1 1 1 1 1 2 1 1 0 1 2 3 2 1 0 0 0 0 0 0 0 0 0 0 0 0 0 0 0 0 0 0 0 0 0 0 0 0 1 1 0 0 0
2 2 2 2 1 1 2 1 0 0 1 1 1 2 1 0 0 0 0 0 0 0 0 0 0 0 0 0 0 0 0 0 0 0 0 0 0 0 0 0 0 0 0 0
3 2 1 1 2 2 1 0 0 0 1 0 0 1 1 0 0 0 0 0 0 0 0 0 0 0 0 0 0 0 0 0 0 0 0 0 0 0 0 0 0 0 0 0
3 2 1 1 1 2 1 0 0 0 0 0 0 0 0 0 0 0 0 0 0 0 0 0 0 0 0 0 0 0 0 0 0 0 0 0 0 0 0 0 0 0 0 0
2 2 1 1 1 1 0 0 0 0 0 0 0 0 0 0 0 0 0 0 0 0 0 0 0 0 0 0 0 0 0 0 0 0 0 0 0 0 0 0 0 0 0 0
1 1 1 1 1 0 0 0 0 0 0 0 0 0 0 0 0 0 0 0 0 0 0 0 0 0 0 0 0 0 0 0 0 0 0 0 0 0 0 0 0 0 0 0

GEFSNGP_con_prob3kmehi_342.txt.gz
EHI
0 0 0 0 0 0 0 0 0 1 2 1 0 0 0 0 1 2 2 2 3 4 5 6 8 9 8 7 6 6 4 3 3 3 3 3 4 4 4 2 2 2 1 0
0 0 0 0 0 0 0 0 1 1 2 1 0 0 0 1 2 3 4 4 4 4 5 7 8 8 7 6 5 4 3 2 2 2 3 3 4 5 5 4 3 3 1 0
0 0 0 0 0 0 1 1 1 1 1 0 0 0 1 2 3 5 7 7 6 6 6 7 8 8 7 6 5 3 2 1 2 1 2 3 4 5 6 6 5 4 3 2
0 0 0 0 0 1 2 2 1 0 0 0 0 0 2 3 3 4 6 7 6 5 5 6 8 8 7 6 5 2 1 1 1 1 1 4 5 6 6 6 5 4 5 5
0 0 0 0 1 2 2 1 0 0 0 0 0 0 1 2 2 3 5 6 5 4 3 6 8 9 7 6 5 3 1 1 1 0 1 3 6 7 7 6 5 5 5 6
0 0 0 1 2 2 1 1 1 1 0 0 0 0 0 1 1 2 5 7 6 5 4 6 10 10 7 6 5 3 2 2 2 1 1 2 4 6 7 7 6 6 6 6
0 0 1 2 3 2 2 2 2 3 1 0 0 0 0 0 0 2 5 8 8 8 6 7 9 9 7 5 4 2 2 2 2 2 2 2 3 5 7 8 7 7 7 6
0 0 1 2 2 2 2 2 3 3 1 0 0 0 0 1 1 2 3 5 7 7 5 5 8 8 7 4 2 1 1 1 1 2 2 2 3 5 7 9 9 8 7 7
0 0 0 1 1 1 2 2 2 2 2 1 0 0 1 2 2 2 1 2 2 2 2 3 6 7 6 3 1 1 1 0 0 1 1 1 2 3 4 6 8 8 8 7
1 1 1 1 1 1 2 2 1 1 2 2 1 1 2 3 3 2 1 0 0 0 0 2 4 4 3 2 1 1 1 1 1 1 1 0 0 1 1 2 4 6 6 6
2 2 2 2 2 3 3 3 2 1 2 2 1 1 2 2 3 2 1 1 0 0 0 1 1 1 1 0 1 2 2 2 2 2 1 0 0 0 0 1 2 2 3 4
2 2 3 3 3 3 3 3 2 1 1 2 2 1 1 1 1 2 2 2 1 1 1 0 0 1 1 0 0 1 1 1 2 1 1 1 0 0 0 0 0 0 1 2
1 2 3 3 3 3 3 1 1 0 0 1 1 1 0 0 0 1 1 2 2 2 1 0 0 1 1 0 0 0 0 0 0 0 0 1 2 2 2 1 0 0 0 1
1 2 3 3 3 3 2 1 0 0 0 0 0 0 0 0 0 0 0 1 1 1 1 0 0 1 1 0 0 0 0 0 0 0 0 1 2 4 4 3 2 1 1 0
0 1 2 2 2 2 1 0 0 0 0 0 0 0 0 0 0 0 0 0 0 0 0 0 0 0 0 0 0 0 0 0 0 0 0 0 1 3 3 3 3 4 2 1
0 0 1 1 1 1 0 0 0 0 0 0 0 0 0 0 0 0 0 0 0 0 0 0 0 0 0 0 0 0 0 0 0 0 0 0 0 1 1 1 2 3 2 2
0 0 0 0 0 0 0 0 0 1 1 0 0 0 0 1 0 0 0 0 0 0 0 0 0 0 0 0 0 0 0 0 0 0 0 0 0 0 0 0 1 1 1 1
0 0 0 0 0 0 0 0 1 2 1 0 0 0 0 0 0 0 0 0 0 0 0 0 0 0 0 0 0 0 0 0 0 0 0 0 0 0 0 0 0 0 0 0
0 0 0 0 0 0 0 0 1 1 1 0 0 0 0 0 0 0 0 0 0 0 0 0 0 0 0 0 0 0 0 1 1 1 0 0 0 0 0 0 0 0 0 0
0 0 0 0 0 0 0 0 0 0 0 0 0 0 0 0 0 0 0 0 0 0 0 0 0 0 0 0 0 0 1 2 2 2 1 0 0 0 0 0 0 0 0 0
0 0 0 0 0 0 0 0 0 0 0 0 0 1 1 0 0 0 0 0 0 0 0 0 0 0 0 0 0 0 1 3 3 3 1 0 0 0 0 0 0 0 0 0
0 0 0 0 0 0 0 0 0 0 0 0 0 1 1 0 0 0 0 0 0 0 0 0 0 0 0 0 0 0 1 2 2 2 1 0 0 0 0 0 0 0 0 0
0 0 0 0 0 0 0 0 0 0 0 0 0 1 1 0 0 0 0 0 0 0 0 0 0 0 0 0 0 0 1 1 1 1 1 0 0 0 0 0 0 0 0 0
0 1 1 0 0 0 0 0 0 0 0 0 0 0 0 0 0 0 0 0 0 0 0 0 0 0 0 0 0 0 0 0 0 0 0 0 0 0 0 0 0 0 0 0
1 2 2 1 0 0 0 0 0 0 0 0 0 0 0 0 0 0 0 0 0 0 0 0 0 0 0 0 0 0 0 0 0 0 0 0 0 0 0 0 0 0 0 0
1 2 2 1 0 0 0 0 0 0 0 0 0 0 0 0 0 0 0 0 0 0 0 0 0 0 0 0 0 0 0 0 0 0 0 0 0 0 0 0 0 0 0 0
0 1 1 1 0 0 0 0 0 0 0 0 0 0 0 0 0 0 0 0 0 0 0 0 0 0 0 0 0 0 0 0 0 0 0 0 0 0 0 0 0 0 0 0